Location: Chlebowo
(53.3083°N, 14.5953°E)
Time: 00:36:54
(UTC+00:00)

Daily predictions for brighter satellites

Satellite Brightness Start Highest point End
(mag) Time Altitude Azimuth Time Altitude Azimuth Time Altitude Azimuth
YAOGAN 11 4.1 00:03:00 29° S 00:05:05 65° WSW 00:09:23 10° NNW
Meteor 1-21 4.3 00:03:15 25° SSW 00:06:49 90° ESE 00:12:38 10° NNE
Cosmos 1802 Rocket 4.0 00:02:02 10° N 00:08:13 79° E 00:13:08 17° SSE
ISS -3.4 00:07:03 10° W 00:10:14 40° SSW 00:13:26 10° SE
Cosmos 1025 Rocket 4.5 00:07:18 14° SE 00:10:20 31° E 00:14:13 10° NNE
Cosmos 1842 4.0 00:08:59 26° SW 00:10:42 42° WNW 00:14:27 10° N
CZ-4 R/B 3.9 00:06:48 10° NNE 00:11:40 76° ESE 00:14:25 25° S
Lacrosse 4 Rocket 2.9 00:14:12 19° SSE 00:16:22 28° ESE 00:20:09 10° NE
Resurs 1-4 Rocket 2.9 00:12:32 10° NNE 00:17:33 43° E 00:21:24 16° SSE
EO 1 Del DPAF 4.1 00:14:58 10° N 00:18:30 39° WNW 00:20:18 23° WSW
Okean 1 Rocket 4.0 00:15:41 10° NNW 00:19:38 34° W 00:21:27 24° SW
Cosmos 1400 Rocket 4.4 00:17:21 10° NW 00:20:32 22° W 00:21:51 19° WSW
CZ-2D R/B 2.9 00:15:32 10° NNE 00:20:42 45° E 00:24:40 16° SSE
APEX 3.7 00:17:54 10° NW 00:22:17 72° WSW 00:27:34 11° SSE
Cosmos 2263 Rocket 3.3 00:17:37 10° NNW 00:23:03 45° NE 00:28:29 10° ESE
Cosmos 2219 3.6 00:18:39 10° NW 00:24:04 46° WSW 00:27:35 21° S
Cosmos 614 Rocket 4.2 00:22:15 10° NW 00:27:11 50° WSW 00:30:18 22° S
Cosmos 1758 4.0 00:23:51 10° NNW 00:27:43 41° W 00:29:29 26° SW
SeaSat 1 2.5 00:23:39 10° NNE 00:28:37 76° NW 00:31:58 21° SW
Cosmos 1315 Rocket 3.3 00:27:08 10° NNW 00:30:59 45° W 00:32:49 26° SSW
MOZ.5/SAFIR/RUBIN 5/SL-8 3.9 00:28:24 23° S 00:31:12 60° WSW 00:35:50 10° NNW
Cosmos 1727 Rocket 4.4 00:29:01 20° SW 00:33:22 56° WNW 00:39:39 10° N
ADEOS Rocket 4.3 00:27:36 10° SE 00:35:02 55° ENE 00:42:32 10° N
Cosmos 1140 Rocket 3.4 00:30:09 10° NNW 00:35:24 84° WSW 00:40:39 10° SSE
Cosmos 1707 3.1 00:34:01 25° SW 00:35:56 50° WNW 00:39:42 10° N
USA 276 2.4 00:36:06 29° SW 00:37:18 46° S 00:40:22 10° ESE
Lacrosse 5 2.1 00:33:51 10° WSW 00:38:57 73° NNW 00:44:04 10° ENE
Cosmos 1908 3.2 00:40:40 10° NNW 00:44:33 67° W 00:47:00 21° S
Cosmos 1544 Rocket 3.5 00:40:47 10° NNW 00:45:13 81° W 00:48:38 17° S
Helios 1A 4.0 00:43:30 22° SW 00:45:14 29° W 00:48:55 10° NW
UNK 3.7 00:44:37 16° S 00:48:20 76° WSW 00:52:56 10° NNW
USA 281 3.3 00:42:32 12° S 00:48:38 57° WSW 00:55:07 10° NNW
MINOTAUR 4 R/B 4.1 00:47:34 15° SSE 00:50:31 83° ENE 00:54:06 10° NNW
Cosmos 1697 Rocket 2.8 00:49:39 19° SSW 00:53:44 73° ESE 00:59:22 10° NE
Cosmos 1459 Rocket 4.5 00:48:03 10° NNW 00:53:57 45° W 00:58:19 17° SSW
Cosmos 1726 4.0 00:51:39 10° NW 00:53:57 16° W 00:55:09 14° WSW
SL-16 R/B 2.6 00:48:44 12° S 00:54:30 67° WSW 01:00:46 10° NNW
USA 215 3.8 00:48:43 10° SSE 00:54:34 35° SW 01:00:28 10° WNW
Cosmos 1455 Rocket 3.6 00:50:41 10° NNW 00:54:48 43° W 00:57:26 20° SSW
Cosmos 304 Rocket 3.8 00:52:37 20° SSW 00:55:59 79° ESE 01:00:49 10° NNE
Cosmos 1725 Rocket 4.0 00:49:58 10° NNW 00:56:13 69° W 01:01:43 13° S
Landsat 4 4.5 00:57:27 10° NNE 01:01:08 47° E 01:04:13 14° S
Cosmos 2233 Rocket 4.0 00:55:28 10° N 01:01:42 89° W 01:07:52 10° S
COSMOS 2455 4.4 00:59:10 10° WNW 01:02:48 17° WSW 01:04:51 14° SW
Cosmos 2360 4.3 01:00:05 17° SSW 01:04:32 74° ESE 01:10:17 10° NE
Cosmos 1980 Rocket 2.7 01:03:00 14° S 01:07:40 53° ESE 01:13:11 10° NE
Cosmos 2016 Rocket 4.3 01:02:10 10° NNW 01:08:11 51° W 01:13:14 14° SSW
Cosmos 1536 Rocket 3.9 01:06:18 13° S 01:10:10 66° E 01:14:37 10° NNE
Cosmos 1190 Rocket 4.2 01:05:56 10° NNW 01:11:02 53° WSW 01:16:07 10° S
IDEFIX/ARIANE 42P 4.0 01:09:06 10° NNE 01:13:54 34° E 01:18:40 10° SSE
Cosmos 1674 3.2 01:11:34 18° SW 01:14:05 45° WNW 01:17:46 10° N
Cosmos 2227 4.3 01:08:41 10° NNW 01:14:24 80° ENE 01:20:03 10° SE
Cosmos 2227 Rocket 3.4 01:12:08 10° NW 01:16:27 23° WSW 01:19:30 15° SW
Cosmos 2297 Rocket 3.8 01:14:46 10° WNW 01:18:23 18° W 01:20:55 13° SW
Cosmos 1626 2.1 01:17:15 17° SSW 01:19:57 67° WNW 01:23:39 10° N
Aureole 2 Rocket 1.6 01:18:21 10° NNW 01:21:02 70° WSW 01:23:42 10° SSE
Meteor 2-5 Rocket 4.0 01:16:10 10° S 01:21:45 65° E 01:27:17 10° NNE
GP-B 3.1 01:19:04 10° N 01:23:32 89° E 01:27:59 10° S
Cosmos 1953 3.7 01:20:37 10° NW 01:23:51 24° W 01:26:10 15° SW
Cosmos 1656 4.4 01:21:56 11° WSW 01:26:55 44° NW 01:32:16 10° NNE
Cosmos 407 Rocket 4.4 01:25:36 10° NW 01:30:16 31° WSW 01:34:37 11° SSW
ATLAS CENTAUR R/B 4.0 01:28:01 10° NW 01:30:35 17° N 01:33:14 10° NE
Helios 1B rocket 2.9 01:28:33 10° N 01:32:35 50° WNW 01:36:01 13° SW
Cosmos 1975 Rocket 4.4 01:31:24 12° WSW 01:34:40 27° WNW 01:38:24 10° N
Cosmos 2369 3.8 01:30:04 13° SW 01:35:12 80° WNW 01:40:59 10° NNE
Cosmos 2278 3.9 01:30:07 12° SSW 01:35:25 72° ESE 01:41:08 10° NE
Cosmos 676 Rocket 4.2 01:30:29 10° NNW 01:35:37 54° WSW 01:40:45 10° S
ADEOS II 2.1 01:32:40 10° NNE 01:37:58 87° ESE 01:43:14 10° SSW
Meteor 2-10 Rocket 3.8 01:33:00 10° NNW 01:38:47 83° ENE 01:44:18 10° SSE
ARGOS Delta rocket 4.0 01:34:37 10° N 01:39:16 66° WNW 01:44:02 11° SSW
Cosmos 371 Rocket 4.5 01:34:52 10° WSW 01:39:17 33° NW 01:43:45 10° NNE
Cosmos 2285 Rocket 4.1 01:34:58 11° SSW 01:41:11 88° ESE 01:47:40 10° NNE
CBERS-1 4.3 01:39:45 10° NNE 01:44:53 70° ESE 01:49:59 10° S
Meteor 1-29 3.2 01:42:04 10° N 01:45:25 55° WNW 01:48:30 12° SSW
ISS -1.9 01:45:02 11° WSW 01:46:25 13° SW 01:48:02 10° S
Cosmos 1300 3.2 01:42:58 10° NNW 01:46:35 41° W 01:50:10 10° SSW
SL-08 R/B 3.9 01:42:01 10° SSE 01:46:36 59° ENE 01:51:09 10° N
SL-16 R/B 3.5 01:42:01 10° S 01:47:05 34° ESE 01:52:09 10° NE
Aureole 1 Rocket 3.2 01:44:20 10° NNW 01:47:35 59° ENE 01:51:33 10° SE
Cosmos 1025 Rocket 4.0 01:44:11 12° SW 01:47:53 35° WNW 01:51:57 10° N
Cosmos 1624 Rocket 4.2 01:44:42 11° SSW 01:49:48 72° WNW 01:55:11 10° NNE
Cosmos 2084 3.5 01:46:35 10° NW 01:50:57 62° SW 01:55:24 10° SSE
SL-14 R/B 3.7 01:47:32 11° SSW 01:51:09 49° WNW 01:55:04 10° N
Lacrosse 4 Rocket 2.0 01:50:29 10° SW 01:54:51 53° NW 01:59:09 10° NNE
Resurs 1-4 Rocket 3.0 01:52:31 10° N 01:57:21 37° WNW 02:02:09 10° SW
CZ-4C R/B 3.5 01:54:48 10° S 01:58:55 56° WSW 02:02:52 10° NNW
Cosmos 1455 2.7 01:56:50 10° N 02:00:40 65° ENE 02:04:29 10° SSE
CZ-2D R/B 3.0 01:55:46 10° N 02:00:42 37° WNW 02:05:33 10° SW
AQUA 4.5 01:57:22 10° N 02:01:53 44° WNW 02:06:23 10° SW
SeaSat 1 4.3 02:01:46 10° NNE 02:05:31 22° NW 02:09:17 10° W
Cosmos 2263 Rocket 2.6 02:01:41 10° NW 02:07:01 44° WSW 02:12:21 10° S
NPP 4.4 02:02:04 10° N 02:07:04 39° WNW 02:12:02 10° SW
Cosmos 1844 Rocket 3.5 02:02:34 10° NNW 02:08:09 59° NE 02:13:44 10° SE
Cosmos 405 3.8 02:05:25 10° NNW 02:08:37 33° W 02:11:46 10° SSW
Cosmos 1452 Rocket 3.8 02:04:14 10° SSW 02:09:28 68° ESE 02:14:45 10° NNE
Cosmos 1891 Rocket 4.5 02:05:48 10° NNW 02:11:49 67° W 02:17:47 10° S
Cosmos 2056 Rocket 3.9 02:07:15 10° SW 02:12:13 51° WNW 02:17:16 10° NNE
Cosmos 2322 Rocket 3.3 02:07:01 10° S 02:12:18 41° ESE 02:17:39 10° NE
Cosmos 1340 3.0 02:08:50 10° SSW 02:12:28 50° WNW 02:16:10 10° N
USA 276 2.9 02:10:19 10° W 02:13:12 32° SSW 02:16:05 10° SE
Cosmos 1892 Rocket 3.9 02:11:06 10° S 02:15:24 68° E 02:19:44 10° NNE
CZ-3B R/B 3.0 02:13:14 10° WSW 02:25:15 82° NNW 02:28:37 10° ENE
